Showing default

GLOBALSTAR M002, 25164

Orbit data source: Space-Track

GLOBALSTAR M002, 25164 is a payload satellite owned by Globalstar (US) in LEO that was launched on Sat, 14 Feb 1998 UTC via a DELTA 7420-10C launch vehicle from the Air Force Eastern Test Range (AFETR). Payload-class satellites include a variety of spacecraft equipped with specific instruments for various scientific and technological missions. These include communications satellites like Starlink; space stations such as the ISS; scientific satellites like the Hubble; Earth observation satellites from companies like Planet Labs, Umbra, and HawkEye 360; GPS; miniature CubeSats for education and research; and military/defense satellites.

Loading next visibility...
Identifier
25164, 1998-008C
Orbit
LEO
Country
Flag of UnknownUnknown / GLOB
Related business
Manufacturer
SS/Loral
Mission
Non-operational Commercial Communications
Bus & Motor
LS-400, Unknown motor
Mass
450 kg wet, 380 kg dry
Launch date (UTC)
1998-02-14 (28 years ago)
Launch vehicle
DELTA 7420-10C
Launch site
Air Force Eastern Test Range (AFETR)
Object type
Payload
Rocket body
Debris
Shape & HBR
Box + 2 Pan, 6.0 m
Radar Cross Section
5.587 m², Large (>1 m²)

Expand to show TLE details & history
Last TLE update: 13 hours ago

TLE from 13 hours ago
0 GLOBALSTAR M002
1 25164U 98008C   25305.59874164 -.00000057  00000-0  37479-3 0  9998
2 25164  52.0011 255.6669 0002043  38.3554 321.7411 11.61512844200032
Epoch: 2025-11-01T14:22Z
TLE epoch observation values (Epoch: 2025-11-01T14:22:11.277Z)
Latitude
-0.00002°
Longitude
-1.00662°
Altitude
1,857.241 km
Speed
6.96 km/s
True Right ascension
17h 02m 40s
True Declination
0° 00' 00"
Sunlit
Object was in daylight at epoch
Visualization orbit readout
Latitude
Unknown
Longitude
Unknown
Altitude
Unknown
Speed
Unknown
Apparent Right ascension
Unknown
Apparent Declination
Unknown
Sunlit
N/A
Visualization observer readout
Local Sidereal Time
23:03:59
Azimuth
Unknown
Elevation
Unknown
Doppler factor
Unknown
Orbital elements
Apogee altitude
1,859.971 km
Perigee altitude
1,856.605 km
Semi-major axis
8,236.425 km
Eccentricity
0.0002
Inclination
52.0011°
RAAN
255.6669°
Arg. of periapsis
38.3554°
True anomaly
321.7266°
Mean anomaly
321.7411°
Eccentric anomaly
321.73385°
Mean motion
2.90359 °/min
Orbital period
123.98 mins
BSTAR
0.00037479
Loading maneuver chart data...
Computing Atmospheric mass density...
Loading historical data...
Loading historical data...
Loading historical data...
Loading historical data...
Loading historical data...
Loading historical data...
Loading historical data...

Documentation

Showing up to 5 results
|